Location: Helsinki
(60.1699°N, 24.9384°E)
Time: 23:44:00
(UTC+02:00)

A-11 Canister half - Pass Details

Date: 27 October 2020
Orbit: 1516 x 1684 km, 47.2° (Epoch: 26 November)

Event Time Altitude Azimuth Distance (km) Brightness Sun altitude
Rises 19:01:13 0° 174° (S) 4,925 11.5 -18.4°
Reaches altitude 10° 19:07:22 10° 146° (SSE) 3,924 10.8 -19.2°
Enters shadow 19:08:12 11° 142° (SE) 3,853 10.7 -19.3°
Maximum altitude 19:10:29 12° 128° (SE) 3,763 - -19.6°
Drops below altitude 10° 19:13:36 10° 109° (ESE) 3,900 - -20.0°
Sets 19:19:36 0° 82° (E) 4,854 - -20.7°
